SCP
0 0 0 0 0 0 0 0 0 0 0 0 0 0 0 0 0 0 0 0 0 0 0 0 0 0 0 0 0 0 0 0 0 0 0 0 0 0 0 0 0 0 0 0
0 0 0 0 0 0 0 0 0 0 0 0 0 0 0 0 0 0 0 0 0 0 0 0 0 0 0 0 0 0 0 0 0 0 0 0 0 0 0 0 0 0 0 0
0 0 0 0 0 0 0 0 0 0 0 0 0 0 0 0 0 0 0 0 0 0 0 0 0 0 0 0 0 0 0 0 0 0 0 0 0 0 0 0 0 0 0 0
0 0 0 0 0 0 0 0 0 0 0 0 0 0 0 0 0 0 0 0 0 0 0 0 0 0 0 0 0 0 0 0 0 0 0 0 0 0 0 0 0 0 0 0
0 0 0 0 0 0 0 0 0 0 0 0 0 0 0 0 0 0 0 0 0 0 0 0 0 0 0 0 0 0 0 0 0 0 0 0 0 0 0 0 0 0 0 0
0 0 0 0 0 0 0 0 0 0 0 0 0 0 0 0 0 0 0 0 0 0 0 0 0 0 0 0 0 0 0 0 0 0 0 0 0 0 0 0 0 0 0 0
0 0 0 0 0 0 0 0 0 0 0 0 0 0 0 0 0 0 0 0 0 0 0 0 0 0 0 0 0 0 0 0 0 0 0 0 0 0 0 0 0 0 0 0
0 0 0 0 0 0 0 0 0 0 0 0 0 0 0 0 0 0 0 0 0 0 0 0 0 0 0 0 0 0 0 0 0 0 0 0 0 0 0 0 0 0 0 0
0 0 0 0 0 0 0 0 0 0 0 0 0 0 0 0 0 0 0 0 0 0 0 0 0 0 0 0 0 0 0 0 0 0 0 0 0 0 0 0 0 0 0 0
0 0 0 0 0 0 0 0 0 0 0 0 0 0 0 0 0 0 0 0 0 0 0 0 0 0 0 0 0 0 0 0 0 0 0 0 0 0 0 0 0 0 0 0
0 0 0 0 0 0 0 0 0 0 0 0 0 0 0 0 0 0 0 0 0 0 0 0 0 0 0 0 0 0 0 0 0 0 0 0 0 0 0 0 0 0 0 0
0 0 0 0 0 0 0 0 0 0 0 0 0 0 0 0 0 0 0 0 0 0 0 0 0 0 0 0 0 0 0 0 0 0 0 0 0 0 0 0 0 0 0 0
0 0 0 0 0 0 0 0 0 0 0 0 0 0 0 0 0 0 0 0 0 0 0 0 0 0 0 0 0 0 0 0 0 0 0 0 0 0 0 0 0 0 0 0
0 0 0 0 0 0 0 0 0 0 0 0 0 0 0 0 0 0 0 0 0 0 0 0 0 0 0 0 0 0 0 0 0 0 0 0 0 0 0 0 0 0 0 0
0 0 0 0 0 0 0 0 0 0 0 0 0 0 0 0 0 0 0 0 0 0 0 0 0 0 0 0 0 0 0 0 0 0 0 0 0 0 0 0 0 0 0 0
0 0 0 0 0 0 0 0 0 0 0 0 0 0 0 0 0 0 0 0 0 0 0 0 0 0 0 0 0 0 0 0 0 0 0 0 0 0 0 0 0 0 0 0
0 0 0 0 0 0 0 0 0 0 0 0 0 0 0 0 0 0 0 0 0 0 0 0 0 0 0 0 0 0 0 0 0 0 0 0 0 0 0 0 0 0 0 0
0 0 0 0 0 0 0 0 0 0 0 0 0 0 0 0 0 0 0 0 0 0 0 0 0 0 -0 0 0 0 0 0 0 0 0 0 0 0 0 0 0 0 0 0
0 0 0 0 0 0 0 0 0 0 0 0 0 0 0 0 0 0 0 0 0 0 0 0 0 0 0 0 0 0 0 0 0 0 0 0 0 0 0 0 0 0 0 0
0 0 0 0 0 0 0 0 0 0 0 0 0 0 0 0 0 0 0 0 0 0 0 0 0 0 0 0 0 0 0 0 0 0 0 0 0 0 0 0 0 0 0 0
0 0 0 0 0 0 0 0 0 0 0 0 0 0 0 0 0 0 0 0 0 0 0 0 0 0 0 0 0 0 0 0 0 0 0 0 0 0 0 0 0 0 0 0
0 0 0 0 0 0 0 0 0 0 0 0 0 0 0 0 0 0 0 0 0 0 0 0 0 0 0 0 0 0 0 0 0 0 0 0 0 0 0 0 0 0 0 0
0 0 0 0 0 0 0 0 0 0 0 0 0 0 0 0 0 0 0 0 0 0 0 0 0 0 0 0 0 0 0 0 0 0 0 0 0 0 0 0 0 0 0 0
0 0 0 0 0 0 0 0 0 0 0 0 0 0 0 0 0 0 0 0 0 0 0 0 0 0 0 0 0 0 0 0 0 0 0 0 0 0 0 0 0 0 0 0
0 0 0 0 0 0 0 0 0 0 0 0 0 0 0 0 0 0 0 0 0 0 0 0 0 0 0 0 0 0 0 0 0 0 0 0 0 0 0 0 0 0 0 0
0 0 0 0 0 0 0 0 0 0 0 0 0 -0 -0 0 0 0 0 0 0 0 0 0 0 0 0 0 0 0 0 0 0 0 0 0 0 0 0 0 0 0 0 0
0 0 0 0 0 0 0 0 0 0 0 0 0 -0 -0 0 0 0 0 0 0 0 0 0 0 0 0 0 0 0 0 0 0 0 0 0 0 0 0 0 0 0 0 0
Wind_Speed
6 9 8 4 3 5 6 7 5 8 10 11 13 14 14 13 13 13 12 12 11 10 10 10 10 11 11 11 11 11 12 12 12 11 10 9 9 8 7 7 7 6 6 6
6 7 4 3 6 7 9 10 11 12 9 11 14 13 13 13 13 13 12 12 11 11 10 9 10 10 10 10 9 10 10 11 10 9 9 8 7 6 6 5 5 5 5 6
4 2 1 6 8 8 10 10 7 6 9 14 13 12 12 12 13 13 12 11 10 10 9 8 8 9 9 9 9 9 9 9 8 8 7 6 6 6 5 4 4 4 4 6
4 3 2 4 5 7 11 12 12 14 14 12 13 12 10 10 12 12 12 11 10 9 8 8 8 8 8 8 8 8 8 8 7 7 7 5 5 5 4 3 3 3 3 5
2 2 5 5 6 6 6 9 11 14 14 15 16 14 10 9 10 11 11 10 9 8 8 8 7 7 7 7 7 7 8 7 6 6 6 5 4 4 3 2 2 2 3 4
4 2 3 5 6 4 5 6 8 12 13 14 13 7 7 9 11 11 10 9 8 8 8 7 6 5 6 7 7 7 7 7 6 5 5 5 4 3 2 1 2 2 3 3
3 2 6 6 4 3 2 4 8 10 10 10 5 8 13 13 11 10 10 9 8 8 7 6 5 5 6 6 6 6 6 6 5 4 4 4 3 2 2 2 2 2 2 2
4 4 6 8 6 7 7 10 10 11 11 13 16 18 15 13 12 11 10 9 8 7 7 6 5 5 6 6 5 5 5 5 4 3 3 3 1 2 2 3 3 2 2 2
7 7 7 9 10 10 11 12 12 13 15 17 17 16 15 13 11 10 9 8 8 8 8 6 5 5 6 5 4 4 4 3 2 2 2 2 2 2 2 2 3 3 3 3
8 9 9 10 12 12 12 13 14 15 16 16 16 15 14 12 10 9 9 8 7 7 7 6 6 6 5 4 4 3 3 2 1 1 0 2 3 4 5 5 6 5 5 5
9 11 10 10 11 13 13 14 15 15 15 15 16 14 13 11 10 9 8 7 7 7 7 7 7 6 5 4 3 2 1 0 0 0 1 2 4 5 5 6 5 5 6 6
6 10 9 12 12 14 13 14 15 15 15 15 14 13 12 11 9 9 9 8 7 7 7 7 6 5 4 4 3 1 0 1 1 0 0 1 4 5 8 6 5 5 5 4
11 12 14 14 14 14 13 15 15 15 15 14 13 12 12 11 9 9 9 8 7 7 6 6 5 4 3 3 2 1 1 1 2 1 1 1 2 4 4 3 1 1 2 3
13 15 16 15 14 14 15 15 15 15 14 13 12 12 11 11 10 9 9 8 7 6 5 4 4 3 2 2 1 1 2 1 2 1 2 2 2 2 2 3 3 3 3 4
13 14 15 16 15 15 15 15 15 14 14 13 12 12 11 11 10 9 8 7 6 5 4 3 3 2 1 1 1 1 1 1 1 2 2 2 3 3 3 3 3 2 2 2
14 15 16 16 16 16 15 15 14 14 14 13 12 12 11 10 9 8 7 6 4 3 3 2 1 1 1 1 1 2 2 2 1 1 1 3 3 3 3 3 3 2 2 3
15 16 17 17 16 15 15 14 14 14 13 13 13 12 11 10 9 7 6 5 4 3 2 2 1 1 0 1 2 3 4 5 3 1 2 3 3 3 3 2 2 2 3 4
14 15 15 16 15 15 15 14 14 14 13 13 13 12 11 9 8 6 5 5 4 3 3 4 4 4 3 3 3 3 1 4 3 3 3 3 3 2 2 2 2 2 2 2
15 16 16 16 15 14 14 14 14 13 13 13 12 11 9 8 7 6 4 3 3 4 5 6 1 4 2 2 3 4 1 2 4 4 4 4 1 2 2 2 1 2 2 2
16 17 17 16 16 15 14 14 14 13 12 12 11 10 8 7 7 5 4 2 4 5 5 5 4 3 1 2 2 4 1 3 4 4 3 3 3 3 2 2 2 2 2 2
17 18 18 17 16 16 15 15 14 13 12 12 11 10 8 7 6 4 3 5 5 4 4 4 3 2 3 2 3 5 1 4 4 3 3 3 3 3 3 3 2 2 2 3
17 17 17 17 16 14 14 13 13 14 13 11 11 10 8 7 5 4 4 5 6 4 2 3 3 5 5 4 7 3 3 4 4 4 3 3 3 3 3 3 2 2 2 2
15 16 16 16 16 15 15 14 14 13 12 11 10 9 8 6 5 5 6 5 6 4 1 5 5 4 4 5 6 1 4 4 3 3 4 4 4 4 4 3 2 2 2 2
15 16 16 15 15 15 15 14 13 11 11 10 10 9 7 5 4 4 7 8 7 4 3 6 3 0 3 6 5 1 4 4 3 3 4 4 4 4 4 3 2 2 1 2
15 16 16 16 15 13 13 13 13 12 12 9 10 10 7 5 5 7 8 8 8 5 5 6 5 5 6 7 2 3 5 5 4 3 4 4 4 4 3 3 2 2 2 3
14 13 12 12 10 10 11 11 11 10 10 9 9 8 7 5 7 8 7 9 10 7 5 6 7 7 7 4 3 5 5 5 4 3 3 3 4 4 3 3 3 2 3 3
14 12 10 11 11 11 11 11 11 11 10 10 10 9 8 7 7 8 8 8 8 8 7 7 8 7 5 3 5 4 3 3 3 4 4 3 3 3 4 3 3 2 2 4
Wind_Direction
241 244 242 259 346 3 359 15 47 103 120 127 127 124 122 119 115 109 105 100 95 92 88 86 85 84 84 84 83 85 86 85 85 86 86 85 84 84 85 85 87 86 80 75
250 230 211 72 40 35 35 52 88 102 97 114 116 118 122 123 121 116 112 108 104 102 98 94 93 93 92 91 91 91 91 93 93 92 91 91 93 94 93 92 91 89 84 76
285 259 108 57 31 37 54 49 64 89 110 120 117 119 123 127 124 121 118 115 111 107 104 102 102 103 102 102 102 99 97 99 100 100 98 99 99 97 93 94 94 89 88 88
310 331 55 84 67 67 72 60 77 101 113 114 112 109 107 118 124 123 123 120 116 113 108 105 104 105 109 110 108 106 104 103 102 101 99 98 94 92 90 88 85 84 86 93
333 48 101 82 48 40 78 82 96 112 116 116 117 105 91 100 113 119 119 118 116 115 114 113 113 114 112 108 106 105 102 101 100 98 96 91 85 82 77 73 74 78 78 94
322 359 85 76 51 45 99 102 112 125 133 141 145 124 120 119 114 113 114 115 117 116 116 114 113 113 109 106 104 101 100 97 91 86 82 75 66 60 48 20 25 40 67 82
334 55 82 38 22 351 29 113 127 130 139 149 142 115 128 126 119 118 118 120 122 118 115 117 120 117 113 109 103 103 105 104 102 99 95 85 61 27 1 6 17 14 42 84
1 53 68 17 37 56 90 111 114 114 116 112 109 116 125 126 125 127 124 124 122 119 119 123 126 123 115 108 107 105 101 100 100 91 81 81 49 1 354 348 357 30 50 68
48 76 80 64 78 94 106 110 112 114 117 120 123 127 129 130 130 130 130 129 129 127 124 124 123 117 113 110 107 107 107 103 88 74 52 27 356 0 7 6 15 24 30 47
109 110 103 97 97 99 102 108 114 120 125 127 128 130 132 133 134 137 137 138 137 135 132 130 129 122 116 113 113 114 118 123 143 140 81 52 25 21 33 25 20 11 20 22
114 123 117 107 108 110 110 113 118 121 125 129 131 134 135 136 139 141 141 139 136 134 131 130 132 133 132 126 125 119 131 200 240 123 100 94 79 51 49 59 47 22 13 10
147 148 136 128 122 120 121 121 122 124 126 130 132 135 135 134 135 135 132 132 132 132 131 134 135 135 138 142 140 135 268 298 296 199 150 140 127 105 62 86 93 73 47 19
113 125 124 127 124 124 123 124 126 128 129 129 130 132 130 129 130 130 131 132 133 134 129 129 133 138 144 150 146 163 271 310 312 4 86 89 117 139 139 127 99 15 339 336
113 120 127 129 127 128 126 126 127 126 127 128 130 130 129 128 129 130 129 130 132 130 133 142 145 145 157 166 178 220 256 215 292 11 55 67 66 84 114 137 156 168 212 259
130 132 130 129 129 130 131 132 132 131 131 131 131 131 132 130 130 128 129 130 134 148 148 140 127 123 166 178 185 222 290 47 27 34 59 85 77 70 70 74 83 99 140 197
135 131 133 136 138 140 141 142 139 138 137 135 135 135 133 132 129 129 131 133 139 121 96 87 99 159 178 159 199 204 128 82 347 334 77 101 93 82 73 70 71 69 54 34
144 145 147 146 147 148 147 144 142 141 140 139 138 137 137 136 136 139 140 128 113 103 103 87 56 345 220 170 261 251 168 151 192 228 89 89 90 82 71 62 62 61 62 63
151 150 149 149 150 148 146 143 143 142 141 140 141 142 144 146 147 146 136 133 144 141 111 85 45 340 352 37 347 325 128 152 155 119 103 87 80 85 80 82 72 63 72 127
147 147 148 149 148 146 145 144 144 142 141 144 146 146 149 148 142 140 143 171 165 137 108 94 75 278 292 81 321 282 255 128 127 120 113 120 153 106 84 79 76 72 49 34
145 146 146 147 148 147 146 145 143 142 145 148 147 149 151 145 144 145 145 105 79 99 124 133 221 242 249 130 259 284 174 116 116 120 118 128 119 100 85 74 69 69 50 38
147 148 149 150 149 149 148 147 146 148 150 152 153 155 148 146 152 152 180 142 119 115 128 155 244 312 51 26 273 273 162 113 114 110 107 109 110 106 93 75 60 57 53 40
150 151 153 150 149 148 147 148 151 152 153 158 161 154 149 157 157 135 85 99 127 126 218 191 123 62 37 330 289 275 111 110 115 116 116 115 114 110 104 95 83 71 58 38
152 153 152 151 151 148 149 153 156 156 160 165 163 158 165 176 172 162 142 140 141 151 215 79 91 75 10 301 281 241 105 107 113 125 127 127 123 120 119 113 100 84 57 28
151 153 151 150 150 153 157 159 157 158 164 168 165 167 172 179 177 132 113 112 112 138 130 117 141 134 305 278 274 140 121 129 135 131 122 123 125 128 127 127 122 117 105 63
153 153 153 155 157 160 160 159 157 163 171 172 168 173 187 193 160 133 135 141 147 168 166 166 202 229 261 271 270 86 81 77 70 73 104 115 132 131 128 134 136 125 92 79
154 156 156 162 161 160 163 164 167 172 178 175 173 178 190 179 146 137 149 161 172 195 208 174 191 218 241 247 107 99 117 144 154 157 117 128 128 127 126 127 123 100 94 91
158 156 158 166 169 171 171 172 174 177 183 179 174 179 182 172 162 165 176 179 179 195 210 193 192 204 208 138 107 117 130 132 133 136 142 143 136 140 139 140 131 127 126 108